Regional Weather Roundup
Issued by NWS Charleston, WV

Home | Current Version | Previous Version | Graphics & Text | Print | Product List | Glossary On
Versions: 1 2 3 4 5 6 7 8 9 10 11 12 13 14 15 16 17 18 19 20 21 22 23 24 25 26 27 28
000
ASUS41 KRLX 252010
RWRRLX
West Virginia Regional Weather Roundup
National Weather Service Charleston WV
400 PM EDT MON SEP 25 2017

Note: "fair" indicates few or no clouds below 12,000 feet with no
significant weather and/or obstructions to visibility.

WVZ003-252100-
Northern Panhandle of West Virginia

CITY           SKY/WX    TMP DP  RH WIND       PRES   REMARKS
WHEELING       MOSUNNY   85  59  41 CALM      30.05F
$$

WVZ009-252100-
Northwest West Virginia

CITY           SKY/WX    TMP DP  RH WIND       PRES   REMARKS
PARKERSBURG    MOSUNNY   87  64  46 NW5       30.05F
$$

WVZ006-252100-
Western West Virginia

CITY           SKY/WX    TMP DP  RH WIND       PRES   REMARKS
HUNTINGTON     MOSUNNY   88  63  43 VRB3      30.01F
$$

WVZ015-252100-
West Central West Virginia

CITY           SKY/WX    TMP DP  RH WIND       PRES   REMARKS
CHARLESTON     MOSUNNY   87  59  38 VRB3      30.02F
$$

WVZ022-031-252100-
North Central West Virginia

CITY           SKY/WX    TMP DP  RH WIND       PRES   REMARKS
CLARKSBURG     PTSUNNY   84  59  42 W3        30.05F
MORGANTOWN     PTSUNNY   86  64  47 N3        30.06F
$$

WVZ025-035-042-045-252100-
Southern West Virginia

CITY           SKY/WX    TMP DP  RH WIND       PRES   REMARKS
BECKLEY        MOSUNNY   78  58  49 SE7       30.11F
LOGAN            N/A     82  64  54 CALM      30.05F
BLUEFIELD      MOSUNNY   75  56  51 VRB5      30.13F
LEWISBURG      PTSUNNY   77  59  53 E5        30.10F
$$

WVZ047-252100-
Northern Mountains of West Virginia

CITY           SKY/WX    TMP DP  RH WIND       PRES   REMARKS
ELKINS         MOSUNNY   82  61  48 VRB7      30.09F
$$

WVZ052-252100-
Eastern Panhandle of West Virginia

CITY           SKY/WX    TMP DP  RH WIND       PRES   REMARKS
MARTINSBURG    PTSUNNY   88  66  48 E6        30.00F
PETERSBURG     PTSUNNY   88  67  48 CALM      30.02F
$$




USA.gov is the U.S. government's official web portal to all federal, state and local government web resources and services.